DW3648 Weather Reports


Display with metric or nautical units.
time (UTC)temp
F
wind
direction
speed
MPH
gust
MPH
rain 1hr
in
rain 24hr
in
rain mn
in
humidity
%
barometer
mb
20260504184543 66 250 4.0 9.0 0.00 0.00 0.00 43 1007.3
20260504183041 67 285 3.0 11.0 0.00 0.00 0.00 40 1007.1
20260504181540 68 289 5.0 10.0 0.00 0.00 0.00 39 1007.0
20260504180039 69 267 5.0 9.0 0.00 0.00 0.00 38 1007.0
20260504174539 69 236 2.0 9.0 0.00 0.00 0.00 38 1007.0
20260504173011 70 251 1.0 10.0 0.00 0.00 0.00 35 1007.1
20260504171516 70 215 3.0 9.0 0.00 0.00 0.00 37 1007.2
20260504081600 58 181 1.0 7.0 0.00 0.00 0.00 72 1008.3
20260504044540 53 106 3.0 5.0 0.00 0.00 0.00 81 1007.0
20260504043046 54 92 2.0 5.0 0.00 0.00 0.00 80 1007.1
20260504041538 54 111 2.0 6.0 0.00 0.00 0.00 80 1007.2
20260504040035 54 103 0.0 3.0 0.00 0.00 0.00 79 1007.1
20260504034534 54 103 1.0 3.0 0.00 0.00 0.00 79 1007.1
20260504033036 54 102 0.0 3.0 0.00 0.00 0.00 78 1007.3
20260504031529 55 99 0.0 5.0 0.00 0.00 0.00 78 1007.5
20260504030030 55 102 0.0 4.0 0.00 0.00 0.00 78 1007.5
20260504024523 55 103 0.0 3.0 0.00 0.00 0.00 77 1007.5
20260504023027 55 103 0.0 2.0 0.00 0.00 0.00 77 1007.5
20260504021520 56 102 1.0 5.0 0.00 0.00 0.00 76 1007.6
20260504020019 56 97 0.0 3.0 0.00 0.00 0.00 75 1007.6
20260504014615 57 114 2.0 5.0 0.00 0.00 0.00 73 1007.6
20260504013017 57 232 0.0 1.0 0.00 0.00 0.00 73 1007.8
20260504011518 57 197 0.0 4.0 0.00 0.00 0.00 72 1007.9
20260504010009 58 194 1.0 5.0 0.00 0.00 0.00 71 1008.0
20260504004507 58 79 1.0 7.0 0.00 0.00 0.00 71 1008.1
20260504003006 58 194 0.0 4.0 0.00 0.00 0.00 70 1008.3
20260504001503 58 248 0.0 2.0 0.00 0.00 0.00 70 1008.4
20260504000002 59 248 0.0 2.0 0.00 0.00 0.00 69 1008.5
20260503234600 59 236 1.0 4.0 0.00 0.00 0.00 68 1008.5
20260503234503 59 227 2.0 4.0 0.00 0.00 0.00 68 1008.5
20260503233058 59 238 0.0 4.0 0.00 0.00 0.00 67 1008.5
20260503231557 60 233 1.0 7.0 0.00 0.00 0.00 67 1008.4
20260503230100 60 239 0.0 6.0 0.00 0.00 0.00 65 1008.4
20260503224556 61 251 0.0 4.0 0.00 0.00 0.00 64 1008.5
20260503223054 61 238 1.0 6.0 0.00 0.00 0.00 63 1008.4
20260503221553 62 201 1.0 6.0 0.00 0.00 0.00 63 1008.3
20260503220056 62 194 1.0 9.0 0.00 0.00 0.00 62 1008.2
20260503214551 63 252 2.0 7.0 0.00 0.00 0.00 61 1008.1
20260503213048 64 278 2.0 7.0 0.00 0.00 0.00 61 1008.0
20260503211549 64 278 1.0 6.0 0.00 0.00 0.00 61 1007.8
20260503210047 64 242 0.0 7.0 0.00 0.00 0.00 61 1007.8
20260503204548 64 279 1.0 5.0 0.00 0.00 0.00 62 1007.7
20260503203020 64 283 0.0 4.0 0.00 0.00 0.00 62 1007.5
20260503201517 65 302 4.0 8.0 0.00 0.00 0.00 61 1007.2
20260503200015 65 220 0.0 4.0 0.00 0.00 0.00 61 1006.9
20260503194513 65 213 0.0 5.0 0.00 0.00 0.00 61 1006.7
20260503193013 65 259 2.0 8.0 0.00 0.00 0.00 61 1006.5
20260503191527 66 280 3.0 10.0 0.00 0.00 0.00 60 1006.4
20260503190044 67 237 2.0 9.0 0.00 0.00 0.00 59 1006.2